DLH911 ULAA-ULLI

Flight info

Callsign DLH911
Flight time 1h 8m
Altitude 32000
Route MAKOG T821 ROGID M856 GIKUR T458 BEPOL BEPOL1W
Aircraft A321/M-SDE3FGHIRWY/LB1

Departure

Time 2026-04-24 15:19
Airport Talagi Airport (ULAA)

Arrival

Time 2026-04-24 16:27
Airport Pulkovo Airport (ULLI)
Time Latitude Longitude Altitude Speed Heading
2026-04-24 14:51 64.59660 40.71565 40 ft 0 kts 186°
2026-04-24 15:06 64.59666 40.71567 40 ft 6 kts 186°
2026-04-24 15:06 64.59683 40.71571 37 ft 2 kts 183°
2026-04-24 15:06 64.59695 40.71571 39 ft 1 kts 199°
2026-04-24 15:06 64.59705 40.71582 38 ft 2 kts 232°
2026-04-24 15:07 64.59711 40.71601 39 ft 1 kts 271°
2026-04-24 15:07 64.59711 40.71603 38 ft 0 kts 271°
2026-04-24 15:12 64.59714 40.71512 40 ft 9 kts 276°
2026-04-24 15:12 64.59723 40.71349 40 ft 12 kts 283°
2026-04-24 15:13 64.59780 40.71279 40 ft 0 kts
2026-04-24 15:13 64.59784 40.71279 40 ft 2 kts
2026-04-24 15:13 64.59813 40.71283 40 ft 6 kts
2026-04-24 15:13 64.59869 40.71299 40 ft 10 kts
2026-04-24 15:14 64.59909 40.71310 40 ft 0 kts
2026-04-24 15:14 64.59925 40.71315 40 ft 6 kts
2026-04-24 15:14 64.59995 40.71335 39 ft 14 kts
2026-04-24 15:15 64.60028 40.71530 37 ft 16 kts 98°
2026-04-24 15:15 64.60013 40.71815 35 ft 21 kts 96°
2026-04-24 15:15 64.59995 40.72199 34 ft 28 kts 96°
2026-04-24 15:15 64.59975 40.72613 38 ft 22 kts 97°
2026-04-24 15:16 64.59955 40.72959 38 ft 21 kts 96°
2026-04-24 15:16 64.59939 40.73318 37 ft 23 kts 97°
2026-04-24 15:16 64.59918 40.73703 35 ft 25 kts 98°
2026-04-24 15:16 64.59898 40.74019 34 ft 13 kts 98°
2026-04-24 15:17 64.59900 40.74142 34 ft 2 kts 17°
2026-04-24 15:17 64.59905 40.74108 34 ft 4 kts 289°
2026-04-24 15:17 64.59913 40.74013 32 ft 0 kts 276°
2026-04-24 15:17 64.59914 40.74003 31 ft 3 kts 276°
2026-04-24 15:18 64.59942 40.73430 33 ft 79 kts 277°
2026-04-24 15:18 64.60036 40.71545 38 ft 152 kts 276°
2026-04-24 15:18 64.60124 40.69742 164 ft 182 kts 278°
2026-04-24 15:18 64.60284 40.66771 656 ft 185 kts 281°
2026-04-24 15:19 64.60508 40.63768 1165 ft 198 kts 280°
2026-04-24 15:19 64.60540 40.60350 1485 ft 225 kts 264°
2026-04-24 15:19 64.59949 40.56812 2019 ft 244 kts 239°
2026-04-24 15:19 64.58922 40.53605 2792 ft 249 kts 237°
2026-04-24 15:20 64.57873 40.50381 3605 ft 251 kts 237°
2026-04-24 15:20 64.56813 40.47128 4419 ft 253 kts 236°
2026-04-24 15:20 64.55738 40.43852 5207 ft 256 kts 236°
2026-04-24 15:20 64.54664 40.40582 5987 ft 258 kts 236°
2026-04-24 15:21 64.53570 40.37254 6740 ft 260 kts 235°
2026-04-24 15:21 64.52471 40.33918 7532 ft 261 kts 235°
2026-04-24 15:21 64.51348 40.30516 8321 ft 262 kts 234°
2026-04-24 15:21 64.50252 40.27190 9081 ft 264 kts 234°
2026-04-24 15:22 64.49132 40.23790 9753 ft 270 kts 234°
2026-04-24 15:22 64.47923 40.20134 9909 ft 293 kts 233°
2026-04-24 15:22 64.46657 40.16319 10046 ft 313 kts 233°
2026-04-24 15:23 64.43842 40.07850 10314 ft 350 kts 233°
2026-04-24 15:23 64.40745 39.98577 10938 ft 371 kts 233°
2026-04-24 15:23 64.39161 39.93841 11488 ft 374 kts 233°
2026-04-24 15:24 64.34311 39.79419 13145 ft 383 kts 232°
2026-04-24 15:25 64.31006 39.69664 14090 ft 389 kts 233°
2026-04-24 15:25 64.27653 39.59762 15050 ft 394 kts 233°
2026-04-24 15:26 64.22528 39.44718 16465 ft 403 kts 232°
2026-04-24 15:27 64.17296 39.29488 17837 ft 411 kts 232°
2026-04-24 15:27 64.11910 39.13949 18956 ft 420 kts 232°
2026-04-24 15:28 64.04509 38.92753 20387 ft 433 kts 232°
2026-04-24 15:29 64.00716 38.81964 21060 ft 439 kts 232°
2026-04-24 15:30 63.94902 38.65514 22018 ft 449 kts 233°
2026-04-24 15:31 63.86934 38.43195 23069 ft 460 kts 233°
2026-04-24 15:32 63.78784 38.20596 24063 ft 464 kts 233°
2026-04-24 15:33 63.70591 37.98069 25083 ft 466 kts 233°
2026-04-24 15:33 63.64378 37.81165 25855 ft 468 kts 234°
2026-04-24 15:34 63.60217 37.69889 26365 ft 468 kts 234°
2026-04-24 15:35 63.53938 37.52994 27121 ft 469 kts 234°
2026-04-24 15:35 63.49761 37.41868 27638 ft 470 kts 234°
2026-04-24 15:35 63.47653 37.36271 27883 ft 470 kts 234°
2026-04-24 15:36 63.45547 37.30691 28136 ft 470 kts 234°
2026-04-24 15:36 63.41337 37.19523 28642 ft 470 kts 234°
2026-04-24 15:36 63.39224 37.13938 28966 ft 469 kts 234°
2026-04-24 15:37 63.37115 37.08397 29283 ft 468 kts 234°
2026-04-24 15:37 63.35007 37.02871 29466 ft 470 kts 234°
2026-04-24 15:37 63.32891 36.97325 29680 ft 470 kts 234°
2026-04-24 15:37 63.30773 36.91789 29866 ft 470 kts 234°
2026-04-24 15:38 63.28642 36.86243 30056 ft 471 kts 234°
2026-04-24 15:38 63.26507 36.80705 30244 ft 471 kts 234°
2026-04-24 15:38 63.24374 36.75193 30430 ft 471 kts 234°
2026-04-24 15:38 63.22237 36.69690 30600 ft 471 kts 234°
2026-04-24 15:39 63.19952 36.64422 30796 ft 476 kts 227°
2026-04-24 15:39 63.17502 36.59474 30957 ft 477 kts 228°
2026-04-24 15:39 63.15110 36.54386 31145 ft 475 kts 230°
2026-04-24 15:39 63.12824 36.49229 31313 ft 474 kts 231°
2026-04-24 15:40 63.10561 36.43941 31497 ft 474 kts 232°
2026-04-24 15:40 63.08306 36.38617 31582 ft 476 kts 232°
2026-04-24 15:40 63.03860 36.28398 33873 ft 383 kts 230°
2026-04-24 15:41 63.01915 36.24186 33260 ft 411 kts 230°
2026-04-24 15:41 62.99815 36.19474 31878 ft 442 kts 232°
2026-04-24 15:41 62.97654 36.14526 31654 ft 455 kts 232°
2026-04-24 15:41 62.95435 36.09456 31573 ft 463 kts 232°
2026-04-24 15:42 62.90897 35.99199 31598 ft 473 kts 231°
2026-04-24 15:42 62.86231 35.88809 31614 ft 482 kts 231°
2026-04-24 15:43 62.83640 35.84217 32105 ft 483 kts 205°
2026-04-24 15:43 62.80399 35.81896 31859 ft 494 kts 200°
2026-04-24 15:43 62.77299 35.79184 32564 ft 466 kts 218°
2026-04-24 15:43 62.74960 35.74740 33440 ft 431 kts 240°
2026-04-24 15:44 62.73503 35.69314 34214 ft 404 kts 249°
2026-04-24 15:44 62.71997 35.64076 34260 ft 416 kts 234°
2026-04-24 15:44 62.69993 35.59439 33952 ft 426 kts 232°
2026-04-24 15:44 62.67907 35.54751 32689 ft 446 kts 232°
2026-04-24 15:45 62.65689 35.49811 32033 ft 465 kts 232°
2026-04-24 15:45 62.63393 35.44729 31771 ft 477 kts 232°
2026-04-24 15:45 62.61038 35.39550 31555 ft 483 kts 232°
2026-04-24 15:45 62.58673 35.34368 31613 ft 485 kts 232°
2026-04-24 15:46 62.53910 35.23940 31609 ft 487 kts 232°
2026-04-24 15:46 62.49137 35.13510 31616 ft 488 kts 232°
2026-04-24 15:47 62.44361 35.03088 31616 ft 488 kts 232°
2026-04-24 15:47 62.39606 34.92757 31615 ft 488 kts 232°
2026-04-24 15:48 62.34790 34.82382 31622 ft 490 kts 232°
2026-04-24 15:48 62.29962 34.72017 31624 ft 490 kts 233°
2026-04-24 15:49 62.25130 34.61671 31634 ft 491 kts 233°
2026-04-24 15:49 62.20281 34.51356 31634 ft 491 kts 233°
2026-04-24 15:50 62.15428 34.41089 31640 ft 491 kts 233°
2026-04-24 15:50 62.10582 34.30888 31651 ft 491 kts 233°
2026-04-24 15:51 62.05711 34.20680 31648 ft 491 kts 233°
2026-04-24 15:51 62.00821 34.10489 31657 ft 491 kts 233°
2026-04-24 15:52 61.95928 34.00321 31651 ft 491 kts 233°
2026-04-24 15:52 61.91025 33.90185 31647 ft 492 kts 233°
2026-04-24 15:53 61.86112 33.80078 31650 ft 492 kts 234°
2026-04-24 15:53 61.81194 33.69994 31649 ft 492 kts 234°
2026-04-24 15:54 61.76267 33.59941 31647 ft 492 kts 234°
2026-04-24 15:54 61.71362 33.49991 31653 ft 492 kts 234°
2026-04-24 15:55 61.66409 33.39983 31661 ft 492 kts 234°
2026-04-24 15:55 61.61453 33.30023 31659 ft 493 kts 234°
2026-04-24 15:56 61.56484 33.20092 31661 ft 493 kts 234°
2026-04-24 15:56 61.51513 33.10195 31668 ft 493 kts 234°
2026-04-24 15:57 61.46524 33.00311 31672 ft 494 kts 234°
2026-04-24 15:57 61.41526 32.90459 31671 ft 494 kts 234°
2026-04-24 15:58 61.36521 32.80631 31673 ft 494 kts 234°
2026-04-24 15:58 61.31531 32.70907 31671 ft 497 kts 232°
2026-04-24 15:59 61.28681 32.66563 31670 ft 514 kts 220°
2026-04-24 15:59 61.25408 32.63271 31671 ft 530 kts 208°
2026-04-24 15:59 61.21806 32.61262 31669 ft 544 kts 195°
2026-04-24 15:59 61.18010 32.60530 31671 ft 551 kts 189°
2026-04-24 16:00 61.10350 32.59523 31666 ft 551 kts 189°
2026-04-24 16:00 61.02730 32.58493 31667 ft 552 kts 189°
2026-04-24 16:01 60.95013 32.57444 31664 ft 553 kts 190°
2026-04-24 16:01 60.87375 32.56348 31679 ft 554 kts 190°
2026-04-24 16:02 60.79699 32.55263 31680 ft 554 kts 189°
2026-04-24 16:02 60.71999 32.54042 31683 ft 551 kts 195°
2026-04-24 16:03 60.64517 32.51196 31681 ft 548 kts 198°
2026-04-24 16:03 60.57020 32.48328 31685 ft 548 kts 197°
2026-04-24 16:04 60.49503 32.45501 31687 ft 548 kts 197°
2026-04-24 16:04 60.42045 32.42703 31583 ft 546 kts 197°
2026-04-24 16:05 60.34561 32.39896 30060 ft 548 kts 198°
2026-04-24 16:05 60.30803 32.38479 29788 ft 552 kts 198°
2026-04-24 16:06 60.19571 32.34228 29589 ft 527 kts 202°
2026-04-24 16:06 60.13266 32.28711 29284 ft 465 kts 227°
2026-04-24 16:07 60.10868 32.24700 29143 ft 433 kts 239°
2026-04-24 16:07 60.09566 32.21799 29031 ft 413 kts 246°
2026-04-24 16:07 60.06811 32.12476 28271 ft 370 kts 264°
2026-04-24 16:08 60.06016 32.07688 27794 ft 354 kts 271°
2026-04-24 16:08 60.05388 31.98263 25687 ft 333 kts 282°
2026-04-24 16:09 60.05082 31.88741 22797 ft 355 kts 277°
2026-04-24 16:09 60.04844 31.83750 21071 ft 366 kts 275°
2026-04-24 16:09 60.04575 31.78638 19394 ft 373 kts 274°
2026-04-24 16:09 60.04293 31.73492 17752 ft 379 kts 272°
2026-04-24 16:10 60.03438 31.57360 15000 ft 394 kts 270°
2026-04-24 16:11 60.02879 31.46621 13136 ft 380 kts 269°
2026-04-24 16:11 60.02609 31.41409 11562 ft 379 kts 268°
2026-04-24 16:11 60.02341 31.36160 10816 ft 376 kts 268°
2026-04-24 16:12 60.01809 31.25890 9508 ft 364 kts 268°
2026-04-24 16:12 60.01548 31.21007 9361 ft 343 kts 268°
2026-04-24 16:12 60.01050 31.11977 9022 ft 310 kts 268°
2026-04-24 16:13 60.00818 31.07804 8879 ft 295 kts 268°
2026-04-24 16:13 60.00391 31.00057 8583 ft 270 kts 269°
2026-04-24 16:14 60.00033 30.93451 7924 ft 261 kts 269°
2026-04-24 16:14 59.99838 30.89876 7203 ft 258 kts 268°
2026-04-24 16:14 59.99449 30.82830 5845 ft 253 kts 268°
2026-04-24 16:15 59.99320 30.80515 5412 ft 251 kts 268°
2026-04-24 16:15 59.98870 30.72444 4055 ft 250 kts 268°
2026-04-24 16:16 59.98473 30.65437 4009 ft 255 kts 267°
2026-04-24 16:16 59.98272 30.61951 4006 ft 256 kts 268°
2026-04-24 16:17 59.97655 30.51356 3813 ft 256 kts 267°
2026-04-24 16:17 59.97239 30.44328 3504 ft 256 kts 267°
2026-04-24 16:18 59.96818 30.37240 3508 ft 257 kts 267°
2026-04-24 16:18 59.96394 30.30190 3042 ft 253 kts 266°
2026-04-24 16:18 59.96183 30.26701 3003 ft 255 kts 266°
2026-04-24 16:19 59.95753 30.19645 3001 ft 256 kts 266°
2026-04-24 16:19 59.95535 30.16108 3002 ft 256 kts 266°
2026-04-24 16:20 59.95101 30.09093 3004 ft 256 kts 266°
2026-04-24 16:20 59.94659 30.02035 3007 ft 256 kts 266°
2026-04-24 16:20 59.94440 29.98564 3001 ft 245 kts 266°
2026-04-24 16:21 59.93765 29.92372 3009 ft 216 kts 244°
2026-04-24 16:21 59.92838 29.90148 3002 ft 204 kts 221°
2026-04-24 16:21 59.91617 29.88785 2970 ft 199 kts 201°
2026-04-24 16:22 59.90253 29.88346 2681 ft 200 kts 179°
2026-04-24 16:22 59.87666 29.90087 2502 ft 200 kts 153°
2026-04-24 16:22 59.86407 29.91283 2508 ft 200 kts 153°
2026-04-24 16:23 59.85203 29.92601 2508 ft 200 kts 140°
2026-04-24 16:23 59.84244 29.94562 2508 ft 197 kts 121°
2026-04-24 16:23 59.83671 29.96987 2511 ft 193 kts 105°
2026-04-24 16:24 59.82902 30.01994 2177 ft 183 kts 102°
2026-04-24 16:24 59.82551 30.04386 1945 ft 173 kts 102°
2026-04-24 16:24 59.82228 30.06585 1692 ft 160 kts 101°
2026-04-24 16:24 59.81923 30.08673 1475 ft 154 kts 101°
2026-04-24 16:25 59.81626 30.10705 1268 ft 153 kts 102°
2026-04-24 16:25 59.81317 30.12723 1038 ft 152 kts 103°
2026-04-24 16:25 59.81046 30.14698 797 ft 147 kts 101°
2026-04-24 16:26 59.80502 30.18517 466 ft 141 kts 105°
2026-04-24 16:26 59.80213 30.20372 302 ft 140 kts 107°
2026-04-24 16:26 59.79707 30.23750 83 ft 80 kts 106°
2026-04-24 16:27 59.79576 30.24642 88 ft 54 kts 106°
2026-04-24 16:27 59.79503 30.25132 84 ft 31 kts 105°
2026-04-24 16:27 59.79498 30.25541 86 ft 29 kts 79°
2026-04-24 16:27 59.79533 30.25845 86 ft 8 kts 74°
2026-04-24 16:28 59.79533 30.25847 86 ft 0 kts 74°
2026-04-24 16:29 59.79538 30.25871 87 ft 6 kts 70°
2026-04-24 16:30 59.79711 30.26086 84 ft 23 kts 21°
2026-04-24 16:30 59.79783 30.26180 83 ft 12 kts 80°
2026-04-24 16:30 59.79776 30.26269 82 ft 0 kts 104°